Regional Weather Roundup
Issued by NWS

Home | Current Version | Previous Version | Text Only | Print | Product List | Glossary Off
Versions: 1 2 3 4 5 6 7 8 9 10 11 12 13 14 15 16 17 18 19 20 21 22 23 24 25 26 27 28 29 30 31 32 33 34 35 36 37 38 39 40 41 42 43 44 45 46 47 48 49 50

000
ASUS43 KLMK 180510
RWRKY
KENTUCKY REGIONAL WEATHER ROUNDUP
NATIONAL WEATHER SERVICE LOUISVILLE KY
100 AM EDT FRI APR 18 2014

NOTE "FAIR" INDICATES FEW OR NO CLOUDS BELOW 12,000 FEET
WITH NO SIGNIFICANT WEATHER AND/OR OBSTRUCTIONS TO VISIBILITY.

KYZ001>023-026-027-061>063-070>075-180600-
WESTERN AND SOUTH CENTRAL KENTUCKY

CITY           SKY/WX    TMP DP  RH WIND       PRES   REMARKS
PADUCAH        PTCLDY    49  43  80 SE5       30.22F
HENDERSON      MOCLDY    52  39  62 CALM      30.25S
OWENSBORO      CLOUDY    53  40  61 CALM      30.26F
HOPKINSVILLE   CLOUDY    52  39  62 E2        30.24F
BOWLING GREEN  MOCLDY    50  39  66 CALM      30.27F
GLASGOW        CLOUDY    46  38  74 CALM      30.27F
$$

KYZ024-025-028>034-038-045-046-053-180600-
NORTH CENTRAL KENTUCKY

CITY           SKY/WX    TMP DP  RH WIND       PRES   REMARKS
LOUISVILLE/SDF MOCLDY    53  39  59 CALM      30.26F
LOUISVILLE/LOU MOCLDY    53  39  59 CALM      30.28R
FORT KNOX      MOCLDY    50  37  60 CALM      30.25F
$$

KYZ035>037-039>044-047>052-055>060-089>105-180600-
NORTHEAST KENTUCKY

CITY           SKY/WX    TMP DP  RH WIND       PRES   REMARKS
LEXINGTON      MOCLDY    48  36  63 SE7       30.28S
COVINGTON      MOCLDY    52  35  52 CALM      30.27S
FRANKFORT      MOCLDY    43  37  79 CALM      30.27R
$$

KYZ054-064>069-076>088-106>120-180600-
SOUTHEAST KENTUCKY

CITY           SKY/WX    TMP DP  RH WIND       PRES   REMARKS
JACKSON        MOCLDY    57  21  24 VRB5      30.29R
LONDON         MOCLDY    48  35  60 CALM      30.28F
SOMERSET       MOCLDY    52  32  46 CALM      30.30S
MIDDLESBORO    PTCLDY    44  36  72 CALM      30.32F
MONTICELLO     MOCLDY    42  37  82 CALM      30.30F
$$




USA.gov is the U.S. government's official web portal to all federal, state and local government web resources and services.